Regional Weather Roundup
Issued by NWS Little Rock, AR

Home | Current Version | Previous Version | Graphics & Text | Print | Product List | Glossary On
Versions: 1 2 3 4 5 6 7 8 9 10 11 12 13 14 15 16 17 18 19 20 21 22 23 24 25 26 27
000
ASUS44 KLZK 221305
RWRLZK

WEATHER ROUNDUP FOR ARKANSAS
NATIONAL WEATHER SERVICE LITTLE ROCK AR
800 AM CDT TUE APR 22 2014

NOTE: "FAIR" INDICATES FEW OR NO CLOUDS BELOW 12,000 FEET WITH NO
SIGNIFICANT WEATHER AND/OR OBSTRUCTIONS TO VISIBILITY.

ARZ001-003-010-029-221400-
NORTHWEST ARKANSAS

CITY           SKY/WX    TMP DP  RH WIND       PRES   REMARKS
FAYETTEVILLE   SUNNY     51  51 100 CALM      30.07S
FORT SMITH     SUNNY     59  57  93 CALM      30.05R
HARRISON       SUNNY     57  52  83 N5        30.06R
BENTONVILLE    SUNNY     55  50  82 NE9       30.09R
ROGERS         SUNNY     56  50  80 N8        30.09R
SILOAM SPGS    SUNNY     54  48  82 NE7       30.10R
HIGHFILL       SUNNY     56  52  86 N8        30.08R
SPRINGDALE     SUNNY     57  54  88 NE9       30.09R
$$

ARZ004-005-016-221400-
NORTH CENTRAL ARKANSAS

CITY           SKY/WX    TMP DP  RH WIND       PRES   REMARKS
BATESVILLE     SUNNY     61  59  94 NW3       29.99R
FLIPPIN        SUNNY     59  48  67 N8        30.04R
MTN HOME       SUNNY     58  53  84 N5        30.02R
$$

ARZ040-041-221400-
WEST CENTRAL ARKANSAS

CITY           SKY/WX    TMP DP  RH WIND       PRES   REMARKS
MENA           SUNNY     63 N/A N/A CALM      30.03S
MOUNT IDA      MOSUNNY   59  59 100 NW3       30.00R FOG
$$

ARZ009-017-025-026-028-221400-
NORTHEAST ARKANSAS

CITY           SKY/WX    TMP DP  RH WIND       PRES   REMARKS
CORNING        FAIR      63  57  82 N8        29.97R
JONESBORO      SUNNY     64  59  83 N10       29.95R
NEWPORT        SUNNY     63  60  90 NW14      29.98R
WALNUT RIDGE   SUNNY     63  55  77 N16       29.97R
BLYTHEVILLE    CLOUDY    63  62  97 N14       29.93R
NW BLYTHEVILLE CLOUDY    63  61  94 N9        29.93
$$

ARZ022-023-033-042-044-221400-
CENTRAL ARKANSAS

CITY           SKY/WX    TMP DP  RH WIND       PRES   REMARKS
LITTLE ROCK    MOSUNNY   63  60  90 NW8       29.99R FOG
N LITTLE ROCK    N/A     62  62 100 NW5       29.99R
JACKSONVILLE   MOSUNNY   62  62 100 NW5       29.99R
SEARCY         SUNNY     62  62 100 NW6       29.98R
HOT SPRINGS    SUNNY     61  59  93 W3        30.00R FOG
RUSSELLVILLE   CLOUDY    61  59  93 NW5       30.02R FOG
CLINTON        FAIR      64  57  77 NW10      30.01R
$$

ARZ036-221400-
EAST ARKANSAS

CITY           SKY/WX    TMP DP  RH WIND       PRES   REMARKS
WEST MEMPHIS   CLOUDY    61  61 100 NW6       29.93R
$$

ARZ050-053-066-070-073-221400-
SOUTHWEST ARKANSAS

CITY           SKY/WX    TMP DP  RH WIND       PRES   REMARKS
ARKADELPHIA    FAIR      62  61  97 W3        30.00S
CAMDEN         CLOUDY    63  59  88 MISG      29.99R FOG
TEXARKANA      SUNNY     61  58  90 NW5       30.02R
EL DORADO      CLOUDY    62  60  93 NW8       29.99R
DE QUEEN       PTSUNNY   54  54 100 CALM      30.01R FOG
$$

ARZ056-057-069-221400-
SOUTHEAST ARKANSAS

CITY           SKY/WX    TMP DP  RH WIND       PRES   REMARKS
PINE BLUFF     CLOUDY    61  60  97 NW7       29.98R FOG
STUTTGART      PTSUNNY   63  61  94 NW6       29.98R
MONTICELLO     CLOUDY    64  62  93 W6        29.96R FOG

$$





USA.gov is the U.S. government's official web portal to all federal, state and local government web resources and services.